Wind_Speed
44 43 38 33 30 28 28 28 28 25 24 22 19 16 15 16 14 13 13 13 13 11
45 44 42 37 31 29 29 27 28 25 24 21 19 18 18 17 15 15 14 13 15 15
47 43 41 39 34 29 30 28 31 29 27 24 22 21 21 19 16 17 16 15 15 16
51 47 44 42 37 33 29 31 31 33 29 26 25 24 24 22 19 18 18 16 16 15
53 50 48 45 39 36 33 32 31 34 33 30 28 25 25 23 22 20 19 19 18 19
55 53 50 47 43 39 36 34 36 35 37 34 32 28 25 24 23 22 20 19 20 19
54 53 51 47 44 42 39 37 38 40 40 37 35 31 28 28 27 25 24 22 20 20
54 50 48 49 45 41 41 41 39 42 42 42 38 36 34 31 29 27 25 25 24 23
53 50 48 50 49 44 43 45 43 43 46 45 43 40 37 33 31 29 27 27 26 28
51 50 48 47 50 49 46 46 48 45 45 49 46 43 40 36 34 33 32 28 27 29
48 47 47 48 50 51 49 48 48 49 47 47 48 46 43 37 36 36 33 31 29 28
46 46 47 48 50 53 53 51 50 50 49 48 45 44 41 39 41 39 36 31 28 24
46 47 47 46 49 51 53 53 52 51 51 49 46 43 37 40 42 41 36 29 27 24
45 46 44 47 47 48 52 52 52 51 52 49 45 42 37 37 38 36 31 29 28 29
Wind_Direction
232 232 234 235 233 232 230 232 230 236 241 241 242 242 232 231 231 229 228 230 236 241
233 234 235 236 235 236 235 234 227 233 235 233 236 239 236 231 232 230 231 235 238 242
234 236 237 239 236 235 232 233 229 231 233 235 238 239 237 232 230 233 233 234 236 240
235 235 236 239 238 238 235 231 231 229 230 232 236 238 238 233 233 236 235 236 237 239
238 237 237 239 239 236 238 232 231 230 230 233 232 234 235 232 232 236 236 237 239 237
239 237 238 239 240 237 237 235 230 231 230 230 228 227 232 233 235 239 244 244 245 245
239 239 237 238 238 238 236 236 231 231 231 229 229 229 232 235 238 241 245 246 247 247
240 239 238 236 236 237 235 237 235 232 232 232 231 231 232 235 239 243 248 252 253 251
238 238 236 235 234 235 237 237 237 235 234 235 234 234 236 237 241 245 250 254 258 258
236 236 235 233 232 233 236 238 238 238 238 239 239 239 240 241 243 246 250 254 258 260
233 235 235 233 232 232 233 236 238 238 240 242 242 242 243 244 246 247 250 253 256 259
233 234 233 234 232 231 232 234 236 240 241 243 244 245 244 243 244 245 247 250 253 253
235 235 234 237 235 234 234 237 238 238 242 244 244 245 242 239 239 240 240 238 238 237
237 238 245 240 238 237 236 237 239 241 244 245 243 244 239 235 234 234 230 228 228 228
Height
1523 1527 1532 1536 1541 1544 1547 1550 1555 1557 1559 1561 1563 1565 1566 1568 1570 1572 1573 1574 1576 1578
1516 1520 1525 1529 1534 1538 1542 1546 1549 1552 1555 1557 1559 1561 1563 1565 1567 1569 1571 1572 1574 1576
1508 1514 1519 1523 1528 1531 1535 1540 1543 1547 1550 1552 1555 1557 1559 1561 1564 1566 1568 1570 1571 1573
1500 1506 1512 1515 1521 1526 1529 1533 1537 1541 1545 1547 1550 1553 1556 1558 1560 1562 1565 1567 1568 1569
1491 1498 1502 1507 1513 1520 1523 1527 1531 1535 1539 1541 1545 1548 1550 1553 1556 1558 1560 1562 1564 1565
1479 1487 1493 1499 1506 1512 1516 1519 1523 1528 1530 1533 1537 1541 1544 1548 1551 1554 1556 1557 1559 1560
1468 1474 1483 1490 1496 1501 1507 1511 1514 1518 1522 1525 1529 1534 1538 1541 1544 1547 1550 1552 1554 1555
1456 1466 1473 1479 1486 1491 1497 1500 1504 1509 1513 1517 1521 1525 1529 1533 1537 1540 1543 1545 1547 1549
1448 1456 1462 1469 1476 1481 1487 1492 1496 1500 1505 1508 1511 1516 1521 1526 1529 1533 1536 1538 1540 1541
1438 1444 1450 1458 1465 1470 1475 1483 1487 1491 1496 1499 1504 1509 1514 1518 1522 1524 1527 1530 1532 1533
1427 1434 1441 1447 1453 1459 1465 1469 1475 1481 1485 1490 1495 1500 1506 1511 1513 1515 1518 1521 1524 1526
1417 1424 1430 1434 1440 1446 1453 1458 1462 1467 1474 1478 1484 1488 1496 1502 1503 1504 1508 1512 1515 1518
1408 1413 1418 1423 1430 1437 1443 1448 1455 1459 1463 1468 1474 1477 1484 1487 1489 1491 1496 1501 1504 1506
1400 1405 1410 1415 1422 1428 1434 1439 1443 1448 1452 1457 1462 1466 1471 1476 1479 1483 1488 1491 1493 1496